Theta_e
342 342 344 342 342 337 335 336 340 340 341 343 342 343 343 344 344 340 333 338 343 344 343 341 341 341 341 340 337 337 338 338 339 335 333 339 343 344 345 346 344 334 335
340 342 342 342 340 337 338 339 339 341 343 341 342 342 341 336 333 331 344 340 342 342 341 340 341 340 339 334 336 339 343 346 346 345 341 336 337 345 345 343 337 333 330
343 340 341 341 341 338 339 340 339 341 342 339 340 335 339 338 342 343 340 341 343 339 337 337 335 340 334 333 333 343 347 346 346 346 346 339 336 337 338 337 334 335 335
347 343 339 341 341 341 341 341 339 341 341 337 338 339 342 342 343 343 344 343 340 337 337 330 327 327 338 327 330 343 344 347 347 347 348 345 336 332 332 333 338 337 335
348 341 338 341 341 342 343 342 339 341 340 336 339 337 343 343 342 342 342 340 335 332 329 326 322 319 319 324 326 336 341 340 341 346 344 345 332 343 344 343 341 342 340
348 339 339 342 344 344 344 343 339 341 338 341 340 341 342 341 340 340 339 336 335 332 331 327 322 317 316 321 331 339 340 342 343 341 341 342 323 328 335 340 335 335 340
348 338 340 342 343 343 343 342 340 341 336 341 342 342 338 340 339 340 338 337 336 336 334 330 326 321 318 323 336 339 340 341 343 341 337 330 333 336 333 331 329 329 332
349 342 340 342 341 339 339 340 339 340 342 343 341 335 334 335 336 339 337 340 341 341 340 338 333 326 327 331 334 335 336 336 336 331 316 317 325 323 319 326 331 331 328
347 343 341 340 339 339 339 339 339 339 341 336 333 335 336 334 334 338 338 341 342 343 341 340 338 335 334 336 336 336 335 332 330 327 321 320 318 317 316 315 315 314 315
346 349 346 341 339 338 338 339 336 338 337 336 341 334 331 328 328 337 340 342 343 341 342 347 344 345 343 339 338 338 337 334 332 330 329 328 327 327 326 326 324 322 319
347 348 344 343 344 342 337 338 337 339 337 344 348 348 352 349 342 335 341 342 343 346 348 349 349 349 348 344 342 339 338 336 332 331 332 332 332 332 332 331 331 331 330
344 347 349 350 350 345 346 339 338 344 343 345 351 350 350 350 345 338 340 343 346 348 350 349 350 350 351 351 346 344 340 340 335 334 333 333 333 333 334 334 334 334 334
343 346 348 348 349 349 344 347 348 351 350 345 348 349 346 345 338 335 339 344 348 348 351 349 350 349 349 350 347 345 344 343 344 337 336 337 336 336 335 335 335 335 336
344 346 349 349 350 350 347 348 346 349 353 347 346 349 346 349 350 345 346 344 348 347 350 350 348 351 346 347 349 347 345 345 346 344 338 337 337 337 337 337 337 336 336
345 348 348 347 348 348 348 349 349 350 349 351 348 346 350 346 348 347 343 347 346 350 350 350 349 351 349 348 349 347 347 347 346 347 347 346 339 338 336 337 337 337 337
345 347 348 348 348 346 349 347 348 348 350 348 350 343 350 349 347 349 344 344 344 351 349 346 347 350 348 349 348 348 349 349 345 350 348 349 347 348 342 339 337 337 336
345 347 348 347 345 347 347 347 348 348 348 347 348 348 348 351 348 346 348 344 347 342 350 349 349 350 349 349 349 349 350 348 350 349 349 349 348 349 347 349 342 338 337
345 346 348 346 346 348 350 344 348 348 348 347 347 346 345 352 346 350 345 345 347 350 347 348 348 351 349 349 346 348 349 349 349 350 349 346 348 348 347 349 347 344 344
345 346 348 347 347 349 347 345 349 349 349 346 345 348 339 349 343 350 347 347 345 348 348 349 355 349 349 349 349 349 347 348 348 351 347 346 349 347 348 351 347 348 352
346 346 348 347 348 347 348 349 348 349 347 346 345 347 349 343 339 348 351 350 342 348 347 350 353 347 350 353 347 349 347 348 348 346 345 345 348 345 351 349 344 348 352
345 347 348 347 348 348 349 349 349 348 345 347 346 347 348 348 341 346 352 348 340 348 348 350 345 355 348 351 349 350 347 348 345 346 344 344 346 346 345 345 347 352 347
344 346 347 348 348 348 348 347 347 346 347 347 347 347 350 348 349 340 348 351 347 345 344 346 348 354 355 353 348 347 347 349 347 347 346 344 346 345 344 346 346 343 344
344 344 347 348 349 347 347 348 347 348 347 348 348 348 348 346 350 347 342 351 350 346 350 345 340 346 351 352 352 344 352 354 351 347 348 346 346 347 346 343 342 341 340
346 344 347 350 351 349 348 349 350 349 346 349 350 349 349 348 347 349 346 346 348 349 348 351 352 355 353 349 351 349 350 349 348 344 343 347 348 349 348 347 344 340 339
347 348 348 349 351 352 346 352 351 350 349 349 346 350 349 349 349 348 349 352 344 348 343 347 353 351 352 351 350 348 351 353 348 353 352 350 349 347 346 345 345 343 338
348 347 350 350 350 350 353 350 354 351 352 351 351 351 350 350 351 348 348 347 347 345 344 351 352 350 352 350 352 354 350 349 348 350 350 349 350 348 344 341 340 342 339
Wind_Speed
15 16 16 15 13 13 14 13 14 16 18 19 21 21 21 22 22 22 22 22 21 20 21 20 18 17 17 17 17 18 18 19 19 18 15 17 17 18 21 21 12 13 13
16 17 17 15 12 14 14 12 14 16 17 20 19 21 20 21 21 22 21 20 20 20 19 19 18 16 16 15 17 18 18 20 20 21 19 13 14 16 16 16 7 12 11
13 14 13 12 12 13 11 11 15 14 17 18 19 20 21 20 20 20 20 18 17 19 18 17 15 16 15 16 18 20 20 19 20 18 14 10 13 12 11 9 10 11 11
19 13 14 12 12 12 12 13 17 16 17 17 18 19 20 20 20 19 18 18 18 18 17 16 15 14 12 14 18 20 23 22 22 18 15 6 7 12 11 11 11 12 10
20 12 14 12 13 15 17 17 19 17 17 17 18 18 19 18 19 19 19 18 18 18 17 16 16 15 14 15 19 23 24 22 19 10 8 12 8 12 11 13 11 10 8
17 14 15 12 15 19 20 21 20 19 17 16 17 17 16 17 17 17 19 19 19 17 18 17 18 18 17 18 22 24 23 20 19 13 6 5 7 10 9 8 6 7 7
18 17 18 21 25 24 23 25 23 19 18 16 15 15 15 15 16 16 17 18 18 18 18 20 21 21 20 22 24 25 23 21 11 6 3 12 13 12 11 9 8 7 5
22 15 20 22 22 24 23 26 24 19 17 15 14 14 14 13 14 15 17 17 18 19 21 23 24 25 26 25 25 23 22 21 9 10 12 13 12 10 10 11 10 10 9
21 14 19 22 22 21 19 23 24 18 17 13 14 13 13 12 12 14 15 17 18 20 21 24 27 29 27 29 28 26 24 19 10 9 15 16 14 13 13 12 11 10 10
19 20 18 20 21 18 17 24 23 13 13 15 16 16 18 14 15 16 14 16 19 21 21 20 22 26 28 27 24 24 21 18 14 16 17 18 17 17 17 17 16 14 13
19 15 14 16 17 14 17 24 13 11 14 18 16 16 15 12 10 14 15 17 21 22 20 15 14 13 20 25 21 23 20 10 13 17 18 17 17 18 18 17 16 16 15
18 19 16 18 19 13 14 15 14 12 13 15 5 12 12 16 8 14 15 18 17 12 17 17 12 13 9 14 19 14 16 6 14 16 16 16 16 17 16 16 15 15 14
16 22 27 14 19 20 13 12 8 7 6 8 12 14 10 11 12 12 11 7 9 12 14 11 15 14 15 11 11 12 11 5 9 16 14 14 14 15 15 14 14 13 13
16 24 21 21 23 18 14 15 11 7 10 4 13 9 15 7 3 7 5 8 9 10 11 11 11 14 12 12 9 8 8 7 6 9 16 14 14 13 13 12 11 11 11
18 22 21 19 18 13 17 16 15 14 12 10 6 12 7 7 8 4 9 1 8 6 6 6 8 10 10 8 6 12 6 7 4 7 11 14 15 15 13 12 11 10 10
18 20 22 20 17 16 15 20 16 14 8 6 7 11 11 7 12 6 10 8 3 3 5 9 11 11 12 7 7 8 6 4 4 5 7 10 13 14 15 14 12 10 9
19 18 21 18 18 16 20 19 17 11 11 10 10 8 17 9 14 10 5 8 4 5 6 8 6 7 4 2 4 7 2 6 3 2 1 8 11 11 13 13 14 11 9
19 20 18 16 18 17 13 18 18 14 11 13 10 9 16 8 17 13 7 6 6 4 3 3 4 6 4 4 1 3 2 2 8 4 6 3 8 9 10 11 12 9 11
19 22 18 19 20 17 19 19 14 13 12 11 11 8 8 13 19 15 7 10 7 5 2 2 2 5 4 4 2 7 0 2 4 3 8 6 3 5 8 9 11 9 11
20 22 19 22 20 21 18 18 16 14 18 13 12 14 10 7 17 15 9 7 10 6 6 6 5 3 5 5 6 2 0 4 4 4 3 5 5 9 0 13 15 8 11
22 22 24 23 21 22 21 21 18 16 15 13 14 14 14 11 15 20 12 9 10 4 8 6 6 3 3 4 4 6 6 6 4 4 3 1 3 4 13 12 12 6 18
24 24 25 24 24 24 22 18 19 16 15 13 15 20 14 13 14 22 15 11 6 6 9 11 7 3 4 4 6 5 7 3 6 6 1 3 9 9 8 8 12 17 14
24 26 26 27 27 28 23 19 19 20 21 20 19 20 21 19 20 16 19 15 12 13 8 6 6 8 4 1 5 4 5 7 4 4 6 6 10 11 9 8 15 11 19
25 25 25 26 27 23 26 22 23 24 27 21 21 20 18 15 20 18 19 21 15 10 11 10 9 8 5 5 4 8 6 10 3 10 11 9 11 11 13 16 15 13 16
23 26 26 26 27 24 28 26 24 23 19 21 22 20 23 18 16 21 22 19 23 16 17 12 13 15 10 7 6 5 6 6 9 11 12 11 14 16 16 16 16 18 13
25 25 27 27 25 26 25 28 25 26 25 21 21 22 23 20 20 20 23 24 21 19 20 15 17 21 14 12 12 11 9 8 11 11 14 16 17 18 18 18 19 17 9
Wind_Direction
116 118 131 141 132 127 121 110 107 98 95 97 96 92 94 97 95 92 94 95 97 95 93 89 90 91 93 95 92 94 94 90 90 85 85 96 90 95 95 87 71 93 91
117 113 118 137 134 137 130 119 112 102 97 101 95 91 95 96 96 96 93 95 92 88 86 87 88 88 89 92 93 96 98 92 84 85 75 88 92 90 95 107 88 89 93
119 112 115 135 144 145 146 129 124 107 105 101 100 96 96 98 99 98 95 93 84 83 81 81 86 88 83 93 102 102 89 81 87 80 84 42 88 90 90 93 89 86 88
125 124 118 125 143 153 154 139 132 112 110 101 97 100 98 100 95 91 91 91 87 80 77 76 76 82 93 95 106 110 93 86 78 76 103 50 61 89 91 88 84 86 84
129 134 115 112 134 147 154 149 139 122 112 104 100 101 99 100 93 90 90 90 83 78 73 73 73 77 86 100 107 109 98 89 86 79 77 82 72 91 92 92 84 90 87
127 132 111 106 131 141 147 146 144 126 119 109 108 105 99 102 93 88 91 86 83 80 73 71 71 73 79 96 106 101 94 89 86 102 115 158 78 101 100 103 89 99 104
124 128 111 108 115 124 134 144 145 132 121 114 114 106 104 102 94 93 93 90 86 81 78 74 70 71 79 95 100 95 89 83 91 102 125 97 89 87 92 93 95 98 85
129 131 119 118 117 118 126 138 137 130 120 115 108 103 103 98 97 101 100 94 86 82 77 75 72 72 78 89 92 92 94 92 72 47 74 87 90 87 88 88 87 85 81
122 133 129 129 125 118 118 143 134 114 115 106 96 93 94 95 103 106 107 95 86 77 81 79 75 74 81 83 86 86 88 91 103 70 75 80 82 83 83 80 78 78 78
128 136 133 136 134 129 121 140 141 103 105 97 92 93 86 78 104 114 108 94 81 81 82 74 78 79 78 76 78 79 84 82 54 75 77 77 78 78 76 75 73 73 73
134 122 131 126 124 132 125 138 149 114 105 100 92 95 99 85 78 122 110 93 86 82 71 61 58 65 79 74 77 80 82 87 61 70 73 74 75 74 73 72 70 69 68
148 153 155 149 147 132 143 135 130 112 118 113 86 108 88 108 111 122 111 97 77 59 60 51 45 31 68 78 65 79 90 63 58 65 69 70 70 70 69 69 68 66 66
154 159 162 146 143 152 156 118 119 122 135 144 140 101 97 126 120 113 105 68 40 39 35 62 57 60 50 86 76 78 99 62 23 43 56 62 62 63 63 61 59 57 56
154 158 157 144 161 162 145 155 151 183 158 145 152 131 139 141 122 158 131 82 81 55 58 77 95 80 58 87 90 94 93 98 359 29 39 47 49 49 49 51 51 49 47
152 155 149 161 160 164 162 177 169 163 170 181 193 143 120 135 148 131 159 164 146 49 59 87 98 91 109 91 70 97 102 86 55 352 13 23 32 34 33 34 35 36 35
163 162 153 148 155 158 173 177 175 162 159 166 210 170 142 184 147 201 131 112 154 53 134 89 85 68 77 85 47 104 90 69 79 4 352 0 7 10 18 21 17 18 19
169 171 162 164 174 184 179 182 161 173 194 167 200 201 166 161 150 141 135 148 170 97 54 50 31 47 78 86 56 40 123 76 23 43 335 345 344 352 357 356 2 3 7
173 178 167 177 178 194 174 185 165 178 184 175 220 243 178 158 160 142 164 147 210 121 58 86 49 42 180 95 77 105 123 315 334 31 77 292 329 327 338 347 350 8 9
181 179 175 181 176 192 181 169 177 191 178 184 200 242 192 177 164 149 178 208 205 130 166 196 96 189 68 343 244 238 48 153 335 168 313 344 44 9 325 316 328 337 344
186 186 184 181 186 190 196 178 178 210 192 182 195 218 228 206 173 158 150 212 179 137 228 226 196 172 136 337 299 201 168 230 220 248 345 333 170 347 295 306 329 345 325
187 190 189 188 192 198 197 181 190 202 193 185 197 216 226 215 199 175 165 236 197 173 223 214 193 221 26 288 323 327 234 241 221 220 99 34 289 10 320 319 323 298 304
189 194 194 194 197 200 193 199 190 197 203 197 199 209 219 221 221 198 183 194 242 209 247 242 205 218 285 246 300 253 282 242 206 154 206 274 261 281 273 284 298 308 308
192 197 201 197 203 206 195 196 195 210 203 203 206 215 220 234 202 221 199 186 204 218 228 226 219 210 248 347 339 269 331 34 345 299 286 245 268 321 332 297 315 302 307
196 201 205 205 207 210 187 202 202 211 209 203 199 222 234 234 219 213 202 201 205 207 213 216 222 222 242 225 279 292 299 308 294 303 263 324 312 307 325 306 316 317 310
201 202 205 217 207 212 198 193 212 210 207 211 213 212 220 231 237 214 209 211 215 196 201 219 243 223 220 240 260 272 281 285 308 277 298 307 294 298 301 299 294 301 301
202 204 209 216 223 212 219 201 203 219 207 212 218 214 217 226 235 233 214 217 219 222 213 215 232 240 214 214 231 246 240 260 284 280 293 301 301 301 303 307 311 296 287